Hourly Weather Russko-Vlasovskiy

Today, 16 April, Friday

Time Temperature Precipitation Wind Pressure Humidity
00:00 +12°C° 0 mm 2 mps 757 mmHg 79%
01:00 +10°C° 0 mm 2 mps 757 mmHg 82%
02:00 +10°C° 0 mm 2 mps 757 mmHg 85%
03:00 +9°C° 0 mm 2 mps 757 mmHg 88%
04:00 +9°C° 0 mm 2 mps 757 mmHg 88%
05:00 +9°C° 0 mm 2 mps 757 mmHg 88%
06:00 +10°C° 0 mm 1 mps 758 mmHg 88%
07:00 +10°C° 0 mm 2 mps 758 mmHg 78%
08:00 +13°C° 0 mm 2 mps 758 mmHg 68%
09:00 +14°C° 0 mm 2 mps 758 mmHg 59%
10:00 +14°C° 0 mm 3 mps 758 mmHg 54%
11:00 +17°C° 0 mm 3 mps 758 mmHg 49%
12:00 +18°C° 0 mm 3 mps 758 mmHg 44%
13:00 +18°C° 0 mm 3 mps 758 mmHg 43%
14:00 +19°C° 0 mm 4 mps 758 mmHg 43%
15:00 +19°C° 0 mm 4 mps 757 mmHg 42%
16:00 +18°C° 0.1 mm 4 mps 757 mmHg 52%
17:00 +15°C° 0.1 mm 5 mps 757 mmHg 62%
18:00 +13°C° 0.1 mm 6 mps 758 mmHg 73%
19:00 +12°C° 1.8 mm 4 mps 758 mmHg 78%
20:00 +11°C° 1.8 mm 3 mps 758 mmHg 83%
21:00 +10°C° 1.8 mm 2 mps 759 mmHg 89%
22:00 +12°C° 0.3 mm 2 mps 759 mmHg 88%
23:00 +12°C° 0.3 mm 2 mps 758 mmHg 88%

Tomorrow, 17 April, Saturday

Time Temperature Precipitation Wind Pressure Humidity
00:00 +12°C° 0.3 mm 2 mps 758 mmHg 88%
01:00 +10°C° 0 mm 2 mps 758 mmHg 90%
02:00 +10°C° 0 mm 2 mps 758 mmHg 91%
03:00 +9°C° 0 mm 2 mps 758 mmHg 93%
04:00 +9°C° 0.1 mm 2 mps 758 mmHg 92%
05:00 +9°C° 0.1 mm 3 mps 758 mmHg 91%
06:00 +9°C° 0.1 mm 3 mps 758 mmHg 89%
07:00 +10°C° 0 mm 3 mps 759 mmHg 81%
08:00 +11°C° 0 mm 3 mps 759 mmHg 73%
09:00 +12°C° 0 mm 3 mps 759 mmHg 65%
10:00 +13°C° 0 mm 3 mps 759 mmHg 59%
11:00 +14°C° 0 mm 4 mps 759 mmHg 52%
12:00 +15°C° 0 mm 4 mps 759 mmHg 45%
13:00 +15°C° 0 mm 4 mps 759 mmHg 42%
14:00 +15°C° 0 mm 5 mps 759 mmHg 39%
15:00 +16°C° 0 mm 5 mps 759 mmHg 37%
16:00 +15°C° 0 mm 5 mps 759 mmHg 40%
17:00 +15°C° 0 mm 4 mps 759 mmHg 43%
18:00 +14°C° 0 mm 3 mps 759 mmHg 47%
19:00 +13°C° 0 mm 3 mps 760 mmHg 52%
20:00 +11°C° 0 mm 3 mps 760 mmHg 58%
21:00 +10°C° 0 mm 3 mps 760 mmHg 64%
22:00 +9°C° 0 mm 3 mps 760 mmHg 66%
23:00 +9°C° 0 mm 2 mps 760 mmHg 68%

Day after tomorrow, 18 April, Sunday

Time Temperature Precipitation Wind Pressure Humidity
00:00 +8°C° 0 mm 2 mps 760 mmHg 70%
01:00 +8°C° 0 mm 2 mps 760 mmHg 71%
02:00 +8°C° 0 mm 1 mps 760 mmHg 71%
03:00 +8°C° 0 mm 1 mps 760 mmHg 71%
04:00 +8°C° 0 mm 1 mps 760 mmHg 71%
05:00 +8°C° 0 mm 1 mps 760 mmHg 72%
06:00 +7°C° 0 mm 0 mps 760 mmHg 72%
07:00 +9°C° 0 mm 1 mps 760 mmHg 67%
08:00 +11°C° 0 mm 1 mps 760 mmHg 62%
09:00 +12°C° 0 mm 1 mps 760 mmHg 56%
10:00 +13°C° 0 mm 1 mps 759 mmHg 53%
11:00 +14°C° 0 mm 1 mps 759 mmHg 50%
12:00 +15°C° 0 mm 1 mps 759 mmHg 46%
13:00 +15°C° 0 mm 1 mps 758 mmHg 44%
14:00 +16°C° 0 mm 1 mps 758 mmHg 42%
15:00 +15°C° 0 mm 0 mps 758 mmHg 40%
16:00 +16°C° 0 mm 1 mps 758 mmHg 42%
17:00 +16°C° 0 mm 1 mps 758 mmHg 44%
18:00 +16°C° 0 mm 1 mps 758 mmHg 46%
19:00 +15°C° 0 mm 1 mps 758 mmHg 50%
20:00 +14°C° 0 mm 1 mps 758 mmHg 55%
21:00 +13°C° 0 mm 1 mps 758 mmHg 60%
22:00 +13°C° 0 mm 1 mps 758 mmHg 62%
23:00 +12°C° 0 mm 1 mps 757 mmHg 65%

19 April, Monday

Time Temperature Precipitation Wind Pressure Humidity
00:00 +12°C° 0 mm 1 mps 757 mmHg 68%
01:00 +12°C° 0 mm 1 mps 757 mmHg 68%
02:00 +12°C° 0 mm 1 mps 757 mmHg 69%
03:00 +12°C° 0 mm 1 mps 757 mmHg 69%
04:00 +12°C° 0 mm 1 mps 757 mmHg 70%
05:00 +12°C° 0 mm 2 mps 757 mmHg 71%
06:00 +12°C° 0 mm 2 mps 757 mmHg 72%
07:00 +12°C° 0.1 mm 2 mps 757 mmHg 73%
08:00 +11°C° 0.1 mm 3 mps 757 mmHg 73%
09:00 +11°C° 0.1 mm 3 mps 757 mmHg 73%
10:00 +11°C° 0.1 mm 3 mps 757 mmHg 76%
11:00 +12°C° 0.1 mm 4 mps 756 mmHg 78%
12:00 +12°C° 0.1 mm 4 mps 756 mmHg 81%
13:00 +12°C° 0 mm 4 mps 756 mmHg 81%
14:00 +12°C° 0 mm 4 mps 756 mmHg 82%
15:00 +12°C° 0 mm 4 mps 756 mmHg 82%
16:00 +12°C° 0 mm 4 mps 756 mmHg 83%
17:00 +11°C° 0 mm 4 mps 755 mmHg 83%
18:00 +11°C° 0 mm 4 mps 755 mmHg 84%
19:00 +11°C° 0 mm 4 mps 755 mmHg 86%
20:00 +10°C° 0 mm 4 mps 755 mmHg 89%
21:00 +10°C° 0 mm 4 mps 755 mmHg 91%
22:00 +9°C° 0 mm 5 mps 754 mmHg 91%
23:00 +9°C° 0 mm 5 mps 753 mmHg 91%

20 April, Tuesday

Time Temperature Precipitation Wind Pressure Humidity
00:00 +9°C° 0 mm 6 mps 753 mmHg 91%
01:00 +9°C° 0.6 mm 6 mps 752 mmHg 92%
02:00 +9°C° 0.6 mm 6 mps 752 mmHg 94%
03:00 +9°C° 0.6 mm 7 mps 751 mmHg 95%
04:00 +9°C° 0.8 mm 8 mps 751 mmHg 94%
05:00 +10°C° 0.8 mm 9 mps 750 mmHg 93%
06:00 +9°C° 0.8 mm 10 mps 749 mmHg 93%
07:00 +11°C° 0.1 mm 11 mps 748 mmHg 89%
08:00 +11°C° 0.1 mm 11 mps 748 mmHg 85%
09:00 +12°C° 0.1 mm 12 mps 747 mmHg 81%
10:00 +13°C° 0.9 mm 11 mps 748 mmHg 78%
11:00 +13°C° 0.9 mm 11 mps 748 mmHg 76%
12:00 +14°C° 0.9 mm 11 mps 748 mmHg 74%
13:00 +13°C° 3.1 mm 10 mps 749 mmHg 81%
14:00 +13°C° 3.1 mm 9 mps 749 mmHg 88%
15:00 +12°C° 3.1 mm 8 mps 749 mmHg 95%
16:00 +11°C° 3.2 mm 7 mps 750 mmHg 94%
17:00 +11°C° 3.2 mm 7 mps 750 mmHg 93%
18:00 +11°C° 3.2 mm 6 mps 751 mmHg 92%
19:00 +10°C° 0.4 mm 6 mps 751 mmHg 90%
20:00 +10°C° 0.4 mm 5 mps 751 mmHg 89%
21:00 +10°C° 0.4 mm 5 mps 752 mmHg 87%
22:00 +9°C° 0 mm 5 mps 752 mmHg 88%
23:00 +9°C° 0 mm 6 mps 752 mmHg 89%

21 April, Wednesday

Time Temperature Precipitation Wind Pressure Humidity
00:00 +9°C° 0 mm 6 mps 753 mmHg 90%
01:00 +8°C° 0 mm 6 mps 753 mmHg 90%
02:00 +8°C° 0 mm 6 mps 753 mmHg 90%
03:00 +8°C° 0 mm 6 mps 754 mmHg 89%
04:00 +7°C° 0 mm 6 mps 754 mmHg 90%
05:00 +7°C° 0 mm 6 mps 754 mmHg 90%
06:00 +7°C° 0 mm 6 mps 755 mmHg 91%
07:00 +8°C° 0 mm 6 mps 755 mmHg 86%
08:00 +8°C° 0 mm 6 mps 756 mmHg 81%
09:00 +9°C° 0 mm 7 mps 756 mmHg 77%
10:00 +10°C° 0 mm 7 mps 757 mmHg 74%
11:00 +11°C° 0 mm 7 mps 757 mmHg 71%
12:00 +12°C° 0 mm 7 mps 757 mmHg 68%
13:00 +13°C° 0 mm 6 mps 757 mmHg 66%
14:00 +14°C° 0 mm 6 mps 758 mmHg 64%
15:00 +14°C° 0 mm 6 mps 758 mmHg 62%
16:00 +14°C° 0.1 mm 5 mps 758 mmHg 65%
17:00 +14°C° 0.1 mm 5 mps 758 mmHg 68%
18:00 +14°C° 0.1 mm 4 mps 758 mmHg 70%
19:00 +12°C° 0.1 mm 4 mps 759 mmHg 76%
20:00 +11°C° 0.1 mm 4 mps 759 mmHg 81%
21:00 +10°C° 0.1 mm 3 mps 760 mmHg 86%
22:00 +10°C° 0 mm 3 mps 760 mmHg 87%
23:00 +10°C° 0 mm 3 mps 760 mmHg 89%
Show more